Location: Hilton Head Island
(32.2163°N, 80.7526°W)
Time: 17:16:01
(UTC-05:00)

Vanguard 2 Rocket - Visible Passes

Search period start: 18 February 2026 00:00
Search period end: 28 February 2026 00:00
Orbit: 553 x 3286 km, 32.9° (Epoch: 18 February)

Date Brightness Start Highest point End Pass type
(mag) Time Alt. Az. Time Alt. Az. Time Alt. Az.
18 Feb 9.0 19:34:28 10° W 19:40:31 21° SW 19:44:49 10° S visible
19 Feb 8.9 18:26:14 10° W 18:36:04 40° SW 18:41:58 10° SSE visible
20 Feb 9.5 19:38:21 10° W 19:42:41 15° SW 19:46:07 10° SSW visible
21 Feb 9.3 18:29:05 10° W 18:38:19 30° SW 18:44:13 10° SSE visible
23 Feb 9.6 18:32:17 10° W 18:40:24 22° SW 18:46:01 10° S visible
25 Feb 10.1 18:36:13 10° W 18:42:19 16° SW 18:47:02 10° SSW visible
26 Feb 10.9 06:08:41 10° SSE 06:16:17 15° SE 06:25:04 10° E visible
27 Feb 10.4 18:43:11 10° WSW 18:44:09 10° SW 18:45:05 10° SW visible
